| time (UTC) | temp F | wind direction | speed MPH | gust MPH | rain 1hr in | rain 24hr in | rain mn in | humidity % | barometer mb |
| 20260831231522 | 69 | 216 | 1.0 | 1.0 | 0.00 | 0.01 | 0.01 | 92 | 1018.3 |
| 20260831230517 | 69 | 218 | 1.0 | 2.0 | 0.00 | 0.01 | 0.01 | 91 | 1018.4 |
| 20260831225613 | 70 | 215 | 1.0 | 2.0 | 0.00 | 0.01 | 0.01 | 90 | 1018.6 |
| 20260831224529 | 70 | 0.0 | 0.0 | 0.00 | 0.01 | 0.01 | 89 | 1018.7 | |
| 20260831223523 | 70 | 0.0 | 0.0 | 0.00 | 0.01 | 0.01 | 89 | 1018.7 | |
| 20260831222519 | 71 | 0.0 | 0.0 | 0.00 | 0.01 | 0.01 | 89 | 1018.6 | |
| 20260831221555 | 72 | 0.0 | 0.0 | 0.00 | 0.02 | 0.01 | 86 | 1018.7 | |
| 20260831220531 | 73 | 0.0 | 0.0 | 0.00 | 0.02 | 0.01 | 83 | 1018.6 | |
| 20260831215526 | 74 | 0.0 | 0.0 | 0.00 | 0.02 | 0.01 | 82 | 1018.5 | |
| 20260831214522 | 74 | 0.0 | 0.0 | 0.00 | 0.02 | 0.01 | 78 | 1018.7 | |
| 20260831213518 | 75 | 194 | 0.0 | 2.0 | 0.00 | 0.02 | 0.01 | 77 | 1018.7 |
| 20260831212533 | 76 | 223 | 0.0 | 1.0 | 0.00 | 0.02 | 0.01 | 74 | 1018.6 |
| 20260831211529 | 76 | 196 | 0.0 | 1.0 | 0.00 | 0.02 | 0.01 | 75 | 1018.5 |
| 20260831210524 | 76 | 199 | 1.0 | 2.0 | 0.00 | 0.02 | 0.01 | 72 | 1018.6 |
| 20260831205559 | 77 | 201 | 0.0 | 1.0 | 0.00 | 0.02 | 0.01 | 71 | 1018.7 |
| 20260831204535 | 77 | 210 | 0.0 | 1.0 | 0.00 | 0.02 | 0.01 | 67 | 1018.7 |
| 20260831203532 | 78 | 227 | 1.0 | 3.0 | 0.00 | 0.02 | 0.01 | 62 | 1018.7 |
| 20260831202546 | 79 | 234 | 1.0 | 2.0 | 0.00 | 0.02 | 0.01 | 58 | 1018.9 |
| 20260831201522 | 80 | 200 | 1.0 | 3.0 | 0.00 | 0.02 | 0.01 | 57 | 1018.9 |
| 20260831200519 | 78 | 241 | 2.0 | 3.0 | 0.00 | 0.02 | 0.01 | 59 | 1019.1 |
| 20260831195534 | 79 | 211 | 2.0 | 3.0 | 0.00 | 0.02 | 0.01 | 59 | 1018.9 |
| 20260831194549 | 78 | 234 | 2.0 | 6.0 | 0.00 | 0.02 | 0.01 | 59 | 1019.1 |
| 20260831193525 | 78 | 190 | 1.0 | 3.0 | 0.00 | 0.02 | 0.01 | 62 | 1019.3 |
| 20260831192521 | 78 | 227 | 2.0 | 6.0 | 0.00 | 0.02 | 0.01 | 63 | 1019.4 |
| 20260831191517 | 76 | 287 | 1.0 | 4.0 | 0.00 | 0.02 | 0.01 | 66 | 1019.3 |
| 20260831190532 | 76 | 267 | 3.0 | 6.0 | 0.00 | 0.02 | 0.01 | 69 | 1019.4 |
| 20260831185528 | 76 | 286 | 2.0 | 3.0 | 0.00 | 0.02 | 0.01 | 72 | 1019.4 |
| 20260831184523 | 75 | 278 | 2.0 | 4.0 | 0.00 | 0.02 | 0.01 | 71 | 1019.5 |
| 20260831183519 | 76 | 279 | 3.0 | 7.0 | 0.00 | 0.02 | 0.01 | 69 | 1019.8 |
| 20260831182535 | 77 | 228 | 3.0 | 8.0 | 0.00 | 0.02 | 0.01 | 68 | 1019.8 |
| 20260831181531 | 76 | 278 | 4.0 | 9.0 | 0.00 | 0.02 | 0.01 | 69 | 1019.9 |
| 20260831180527 | 76 | 171 | 2.0 | 4.0 | 0.00 | 0.02 | 0.01 | 69 | 1020.0 |
| 20260831175522 | 77 | 186 | 2.0 | 4.0 | 0.00 | 0.02 | 0.01 | 73 | 1020.1 |
| 20260831174519 | 74 | 339 | 2.0 | 3.0 | 0.00 | 0.02 | 0.01 | 74 | 1020.3 |
| 20260831173534 | 74 | 74 | 1.0 | 2.0 | 0.00 | 0.02 | 0.01 | 73 | 1020.4 |
| 20260831172550 | 74 | 215 | 2.0 | 3.0 | 0.00 | 0.02 | 0.01 | 74 | 1020.4 |
| 20260831171546 | 74 | 240 | 1.0 | 3.0 | 0.00 | 0.02 | 0.01 | 75 | 1020.5 |
| 20260831170522 | 74 | 253 | 2.0 | 6.0 | 0.00 | 0.02 | 0.01 | 77 | 1020.5 |
| 20260831165518 | 74 | 240 | 1.0 | 4.0 | 0.00 | 0.02 | 0.01 | 74 | 1020.6 |
| 20260831164535 | 75 | 241 | 3.0 | 4.0 | 0.00 | 0.02 | 0.01 | 74 | 1020.7 |
| 20260831163531 | 76 | 232 | 2.0 | 3.0 | 0.00 | 0.02 | 0.01 | 72 | 1021.0 |
| 20260831162526 | 75 | 212 | 1.0 | 3.0 | 0.00 | 0.02 | 0.01 | 74 | 1020.9 |
| 20260831161522 | 75 | 213 | 2.0 | 4.0 | 0.00 | 0.02 | 0.01 | 74 | 1021.1 |
| 20260831160538 | 73 | 215 | 2.0 | 6.0 | 0.00 | 0.02 | 0.01 | 75 | 1021.2 |
| 20260831155533 | 73 | 198 | 1.0 | 3.0 | 0.00 | 0.02 | 0.01 | 76 | 1021.3 |
| 20260831154529 | 72 | 245 | 3.0 | 4.0 | 0.00 | 0.02 | 0.01 | 78 | 1021.4 |
| 20260831153544 | 72 | 170 | 1.0 | 2.0 | 0.00 | 0.02 | 0.01 | 77 | 1021.5 |
| 20260831152521 | 70 | 221 | 1.0 | 3.0 | 0.00 | 0.02 | 0.01 | 82 | 1021.5 |
| 20260831151517 | 70 | 226 | 1.0 | 3.0 | 0.00 | 0.02 | 0.01 | 83 | 1021.5 |
| 20260831150532 | 71 | 87 | 1.0 | 4.0 | 0.00 | 0.02 | 0.01 | 82 | 1021.5 |
| 20260831145527 | 69 | 88 | 1.0 | 2.0 | 0.00 | 0.02 | 0.01 | 85 | 1021.5 |
| 20260831144524 | 69 | 19 | 1.0 | 2.0 | 0.00 | 0.02 | 0.01 | 86 | 1021.6 |
| 20260831143520 | 68 | 72 | 1.0 | 2.0 | 0.00 | 0.02 | 0.01 | 85 | 1021.6 |
| 20260831142516 | 68 | 70 | 2.0 | 4.0 | 0.00 | 0.02 | 0.01 | 89 | 1021.6 |
| 20260831141531 | 67 | 119 | 2.0 | 3.0 | 0.00 | 0.02 | 0.01 | 91 | 1021.6 |
| 20260831140526 | 67 | 91 | 1.0 | 3.0 | 0.00 | 0.02 | 0.01 | 93 | 1021.6 |
| 20260831135542 | 67 | 36 | 1.0 | 2.0 | 0.00 | 0.02 | 0.01 | 91 | 1021.5 |
| 20260831134518 | 67 | 298 | 1.0 | 3.0 | 0.00 | 0.02 | 0.01 | 92 | 1021.6 |
| 20260831133534 | 66 | 80 | 2.0 | 3.0 | 0.00 | 0.02 | 0.01 | 94 | 1021.6 |
| 20260831132530 | 63 | 156 | 0.0 | 1.0 | 0.00 | 0.02 | 0.01 | 99 | 1021.7 |
| 20260831131526 | 63 | 289 | 3.0 | 6.0 | 0.00 | 0.02 | 0.01 | 99 | 1021.7 |
| 20260831130521 | 63 | 213 | 1.0 | 2.0 | 0.00 | 0.02 | 0.01 | 99 | 1021.8 |
| 20260831125518 | 62 | 191 | 0.0 | 1.0 | 0.00 | 0.02 | 0.01 | 99 | 1021.8 |
| 20260831124534 | 61 | 204 | 1.0 | 3.0 | 0.00 | 0.02 | 0.01 | 99 | 1021.8 |
| 20260831123530 | 60 | 209 | 1.0 | 2.0 | 0.00 | 0.02 | 0.01 | 99 | 1021.8 |
| 20260831122526 | 59 | 0.0 | 0.0 | 0.00 | 0.02 | 0.01 | 99 | 1021.7 | |
| 20260831121522 | 58 | 219 | 0.0 | 1.0 | 0.00 | 0.02 | 0.01 | 99 | 1021.8 |
| 20260831120539 | 58 | 0.0 | 0.0 | 0.00 | 0.02 | 0.01 | 99 | 1021.9 | |
| 20260831115554 | 57 | 211 | 0.0 | 2.0 | 0.00 | 0.02 | 0.01 | 99 | 1021.7 |
| 20260831114550 | 57 | 210 | 1.0 | 2.0 | 0.00 | 0.02 | 0.01 | 99 | 1021.7 |
| 20260831113526 | 57 | 213 | 0.0 | 1.0 | 0.00 | 0.02 | 0.01 | 99 | 1021.6 |
| 20260831112521 | 56 | 0.0 | 0.0 | 0.00 | 0.02 | 0.01 | 99 | 1021.6 | |
| 20260831111516 | 56 | 0.0 | 0.0 | 0.00 | 0.02 | 0.01 | 99 | 1021.3 | |
| 20260831110532 | 55 | 0.0 | 0.0 | 0.00 | 0.02 | 0.01 | 99 | 1021.2 | |
| 20260831105528 | 55 | 0.0 | 0.0 | 0.00 | 0.02 | 0.01 | 99 | 1021.0 | |
| 20260831104524 | 55 | 0.0 | 0.0 | 0.00 | 0.02 | 0.01 | 99 | 1020.7 | |
| 20260831103519 | 55 | 0.0 | 0.0 | 0.00 | 0.02 | 0.01 | 99 | 1020.7 | |
| 20260831102535 | 55 | 210 | 0.0 | 2.0 | 0.00 | 0.02 | 0.01 | 99 | 1020.8 |
| 20260831101530 | 55 | 0.0 | 0.0 | 0.00 | 0.02 | 0.01 | 99 | 1020.8 | |
| 20260831100527 | 55 | 0.0 | 0.0 | 0.00 | 0.02 | 0.01 | 99 | 1020.8 | |
| 20260831095522 | 55 | 0.0 | 0.0 | 0.01 | 0.02 | 0.01 | 99 | 1020.7 | |
| 20260831094518 | 56 | 0.0 | 0.0 | 0.01 | 0.02 | 0.01 | 99 | 1020.5 | |
| 20260831093555 | 56 | 0.0 | 0.0 | 0.01 | 0.02 | 0.01 | 99 | 1020.4 | |
| 20260831092528 | 56 | 230 | 0.0 | 1.0 | 0.01 | 0.02 | 0.01 | 99 | 1020.6 |
| 20260831091545 | 57 | 261 | 1.0 | 2.0 | 0.01 | 0.02 | 0.01 | 99 | 1020.6 |
| 20260831090521 | 57 | 206 | 2.0 | 3.0 | 0.01 | 0.02 | 0.01 | 99 | 1020.5 |
| 20260831085516 | 57 | 221 | 2.0 | 3.0 | 0.00 | 0.01 | 0.00 | 99 | 1020.3 |
| 20260831084531 | 57 | 219 | 2.0 | 3.0 | 0.00 | 0.01 | 0.00 | 99 | 1020.3 |
| 20260831083530 | 57 | 0.0 | 0.0 | 0.00 | 0.01 | 0.00 | 99 | 1020.1 | |
| 20260831082543 | 57 | 0.0 | 0.0 | 0.00 | 0.01 | 0.00 | 99 | 1020.1 | |
| 20260831081519 | 57 | 170 | 0.0 | 1.0 | 0.00 | 0.01 | 0.00 | 99 | 1020.1 |
| 20260831080535 | 57 | 219 | 0.0 | 1.0 | 0.00 | 0.01 | 0.00 | 99 | 1020.1 |
| 20260831075551 | 58 | 230 | 1.0 | 1.0 | 0.00 | 0.01 | 0.00 | 99 | 1020.0 |
| 20260831074547 | 58 | 0.0 | 0.0 | 0.00 | 0.01 | 0.00 | 99 | 1020.0 | |
| 20260831073543 | 58 | 226 | 0.0 | 1.0 | 0.00 | 0.01 | 0.00 | 99 | 1019.8 |
| 20260831072518 | 58 | 202 | 0.0 | 1.0 | 0.00 | 0.01 | 0.00 | 99 | 1019.8 |
| 20260831071534 | 59 | 229 | 0.0 | 1.0 | 0.00 | 0.01 | 0.00 | 99 | 1019.9 |
| 20260831070531 | 59 | 218 | 1.0 | 1.0 | 0.00 | 0.01 | 0.00 | 99 | 1020.0 |
| 20260831065526 | 60 | 193 | 1.0 | 1.0 | 0.00 | 0.01 | 0.00 | 99 | 1019.7 |
| 20260831064523 | 60 | 220 | 0.0 | 1.0 | 0.00 | 0.01 | 0.00 | 99 | 1019.7 |
| 20260831063519 | 60 | 217 | 0.0 | 1.0 | 0.00 | 0.01 | 0.00 | 99 | 1019.7 |
| 20260831062534 | 61 | 198 | 0.0 | 1.0 | 0.00 | 0.01 | 0.00 | 99 | 1019.7 |
| 20260831061530 | 61 | 221 | 0.0 | 1.0 | 0.00 | 0.01 | 0.00 | 99 | 1019.7 |
| 20260831060526 | 61 | 0.0 | 0.0 | 0.00 | 0.01 | 0.00 | 99 | 1019.8 | |
| 20260831055522 | 61 | 0.0 | 0.0 | 0.00 | 0.01 | 0.00 | 99 | 1019.8 | |
| 20260831054539 | 61 | 235 | 0.0 | 1.0 | 0.00 | 0.01 | 0.00 | 99 | 1019.8 |
| 20260831053535 | 61 | 0.0 | 0.0 | 0.00 | 0.01 | 0.00 | 99 | 1019.8 | |
| 20260831052531 | 62 | 216 | 1.0 | 1.0 | 0.00 | 0.01 | 0.00 | 99 | 1019.8 |
| 20260831051527 | 62 | 211 | 1.0 | 1.0 | 0.00 | 0.01 | 0.00 | 99 | 1019.7 |
| 20260831050524 | 62 | 228 | 1.0 | 1.0 | 0.00 | 0.01 | 0.00 | 99 | 1020.0 |
| 20260831045522 | 62 | 211 | 1.0 | 1.0 | 0.00 | 0.01 | 0.00 | 99 | 1019.6 |
| 20260831044538 | 63 | 206 | 1.0 | 1.0 | 0.00 | 0.01 | 0.00 | 99 | 1019.6 |
| 20260831043535 | 63 | 214 | 1.0 | 2.0 | 0.00 | 0.01 | 0.00 | 99 | 1019.6 |
| 20260831042530 | 63 | 232 | 1.0 | 1.0 | 0.00 | 0.01 | 0.00 | 99 | 1019.7 |
| 20260831041526 | 63 | 189 | 1.0 | 2.0 | 0.00 | 0.01 | 0.00 | 99 | 1019.6 |
| 20260831040521 | 63 | 207 | 1.0 | 2.0 | 0.00 | 0.01 | 0.00 | 99 | 1019.5 |
| 20260831035517 | 63 | 0.0 | 0.0 | 0.00 | 0.01 | 0.01 | 99 | 1019.5 | |
| 20260831034532 | 63 | 210 | 1.0 | 2.0 | 0.00 | 0.01 | 0.01 | 99 | 1019.6 |
| 20260831033528 | 63 | 203 | 1.0 | 1.0 | 0.00 | 0.01 | 0.01 | 99 | 1019.4 |
| 20260831032524 | 63 | 206 | 0.0 | 1.0 | 0.00 | 0.01 | 0.01 | 99 | 1019.6 |
| 20260831031520 | 63 | 224 | 1.0 | 2.0 | 0.00 | 0.01 | 0.01 | 99 | 1019.5 |
| 20260831030534 | 63 | 229 | 0.0 | 1.0 | 0.00 | 0.01 | 0.01 | 99 | 1019.6 |
| 20260831025530 | 63 | 178 | 1.0 | 2.0 | 0.00 | 0.01 | 0.01 | 99 | 1019.5 |
| 20260831024524 | 63 | 202 | 1.0 | 2.0 | 0.00 | 0.01 | 0.01 | 99 | 1019.4 |
| 20260831023520 | 63 | 243 | 1.0 | 2.0 | 0.00 | 0.01 | 0.01 | 99 | 1019.3 |
| 20260831022516 | 63 | 189 | 2.0 | 2.0 | 0.00 | 0.01 | 0.01 | 99 | 1019.3 |
| 20260831021551 | 63 | 218 | 1.0 | 2.0 | 0.00 | 0.01 | 0.01 | 99 | 1019.4 |
| 20260831020527 | 64 | 215 | 0.0 | 1.0 | 0.00 | 0.01 | 0.01 | 99 | 1019.4 |
| 20260831015523 | 64 | 197 | 0.0 | 1.0 | 0.00 | 0.01 | 0.01 | 99 | 1019.4 |
| 20260831014519 | 64 | 197 | 0.0 | 1.0 | 0.00 | 0.01 | 0.01 | 99 | 1019.2 |
| 20260831013535 | 64 | 156 | 0.0 | 1.0 | 0.00 | 0.01 | 0.01 | 99 | 1019.0 |
| 20260831012551 | 64 | 216 | 0.0 | 1.0 | 0.00 | 0.01 | 0.01 | 99 | 1018.7 |
| 20260831011527 | 64 | 227 | 1.0 | 1.0 | 0.00 | 0.01 | 0.01 | 99 | 1018.7 |
| 20260831010524 | 65 | 251 | 2.0 | 2.0 | 0.00 | 0.01 | 0.01 | 99 | 1018.5 |
| 20260831005519 | 65 | 192 | 0.0 | 1.0 | 0.00 | 0.01 | 0.01 | 99 | 1018.4 |
| 20260831004515 | 65 | 193 | 1.0 | 2.0 | 0.00 | 0.01 | 0.01 | 99 | 1018.4 |
| 20260831003531 | 65 | 212 | 1.0 | 1.0 | 0.00 | 0.01 | 0.01 | 99 | 1018.4 |
| 20260831002526 | 66 | 185 | 0.0 | 1.0 | 0.00 | 0.01 | 0.01 | 99 | 1018.2 |
| 20260831001602 | 66 | 223 | 0.0 | 1.0 | 0.00 | 0.01 | 0.01 | 99 | 1018.0 |
| 20260831000518 | 66 | 300 | 1.0 | 2.0 | 0.00 | 0.01 | 0.01 | 99 | 1017.8 |
| 20260830235534 | 66 | 214 | 1.0 | 1.0 | 0.00 | 0.01 | 0.01 | 99 | 1017.6 |
| 20260830234549 | 66 | 187 | 1.0 | 1.0 | 0.00 | 0.01 | 0.01 | 99 | 1017.8 |
| 20260830233525 | 66 | 216 | 0.0 | 1.0 | 0.00 | 0.01 | 0.01 | 99 | 1017.8 |
| 20260830232521 | 67 | 244 | 0.0 | 1.0 | 0.00 | 0.01 | 0.01 | 99 | 1017.8 |